Weather History for Glendive, MT

Change the Weather History Date:

Tuesday, January 1, 2013

  Actual Average Record
Temperature  
Mean Temperature 14 °F -  
Max Temperature 28 °F 23 °F 48 °F (1998)
Min Temperature 0 °F 7 °F -16 °F (2011)
Degree Days  
Heating Degree Days 51    
Moisture  
Dew Point 12 °F    
Average Humidity 84    
Maximum Humidity 100    
Minimum Humidity 61    
Precipitation  
Precipitation 0.00 in - - ()
Sea Level Pressure  
Sea Level Pressure 30.01 in    
Wind  
Wind Speed 8 mph (WSW)    
Max Wind Speed 22 mph    
Max Gust Speed 32 mph    
Visibility 9 miles    
Events      
Averages and records for this station are not official NWS values.
T = Trace of Precipitation, MM = Missing Value Source: NWS Daily Summary

Daily Weather History Graph

Daily Weather History Graph

Search for Another Location

Airport:

Trip Planner

Search our weather history database for the weather conditions in past years. The results will help you decide how hot, cold, wet, or windy it might be!

Date:

Astronomy

Jan. 01, 2013 Rise Set
Actual Time 7:45 AM MST 4:20 PM MST
Civil Twilight 7:10 AM MST 4:56 PM MST
Nautical Twilight 6:31 AM MST 5:34 PM MST
Astronomical Twilight 5:54 AM MST 6:11 PM MST
Moon 9:13 PM MST (1/1) 9:41 AM MST (1/1)
Length of Visible Light 9h 45m
Length of Day
8h 35m
Waning Gibbous, 83% of the Moon is Illuminated
Jan 1
Waning Gibbous
Jan 4
Last Quarter
Jan 11
New
Jan 18
First Quarter
Jan 26
Full

Hourly Weather History & Observations

Time (MST) Temp. Windchill Dew Point Humidity Pressure Visibility Wind Dir Wind Speed Gust Speed Precip Events Conditions
12:35 AM 5.0 °F -4.1 °F -0.4 °F 78% 30.03 in 10.0 mi West 4.6 mph - N/A   Clear
12:55 AM 6.8 °F - 3.2 °F 85% 30.03 in 10.0 mi Calm Calm - N/A   Clear
1:15 AM 6.8 °F -0.1 °F 1.4 °F 79% 30.04 in 10.0 mi West 3.5 mph - N/A   Clear
1:35 AM 3.2 °F -4.2 °F -0.4 °F 85% 30.04 in 10.0 mi West 3.5 mph - N/A   Clear
1:55 AM 3.2 °F - 3.2 °F 100% 30.04 in 10.0 mi Calm Calm - N/A   Clear
2:15 AM 3.2 °F -6.2 °F 1.4 °F 92% 30.04 in 10.0 mi West 4.6 mph - N/A   Clear
2:35 AM 3.2 °F - -0.4 °F 85% 30.04 in 10.0 mi Calm Calm - N/A   Clear
2:55 AM 6.8 °F -2.0 °F 6.8 °F 100% 30.03 in 10.0 mi SSE 4.6 mph - N/A   Clear
3:15 AM 3.2 °F -7.8 °F -5.8 °F 66% 30.04 in 10.0 mi SSW 5.8 mph - N/A   Clear
3:35 AM -0.4 °F -8.3 °F -7.6 °F 72% 30.04 in 10.0 mi West 3.5 mph - N/A   Clear
3:55 AM 1.4 °F -6.2 °F 1.4 °F 100% 30.04 in 10.0 mi SW 3.5 mph - N/A   Clear
4:15 AM 3.2 °F -9.1 °F 3.2 °F 100% 30.03 in 10.0 mi SSW 6.9 mph - N/A   Clear
4:35 AM 1.4 °F -11.3 °F -5.8 °F 72% 30.03 in 10.0 mi SSW 6.9 mph - N/A   Clear
4:55 AM 1.4 °F -9.9 °F -9.4 °F 61% 30.02 in 10.0 mi SW 5.8 mph - N/A   Clear
5:35 AM 3.2 °F -7.8 °F -0.4 °F 85% 30.02 in 10.0 mi SW 5.8 mph - N/A   Clear
5:55 AM 1.4 °F -9.9 °F -2.2 °F 85% 30.02 in 10.0 mi SW 5.8 mph - N/A   Clear
6:15 AM 1.4 °F -8.3 °F -5.8 °F 72% 30.02 in 10.0 mi South 4.6 mph - N/A   Clear
6:35 AM 3.2 °F -6.2 °F -0.4 °F 85% 30.01 in 10.0 mi South 4.6 mph - N/A   Clear
6:55 AM 1.4 °F -11.3 °F -4.0 °F 78% 30.00 in 10.0 mi SSW 6.9 mph - N/A   Mostly Cloudy
7:15 AM 3.2 °F -7.8 °F 1.4 °F 92% 30.00 in 10.0 mi South 5.8 mph - N/A   Partly Cloudy
7:35 AM 1.4 °F -8.3 °F -5.8 °F 72% 30.00 in 10.0 mi South 4.6 mph - N/A   Clear
7:55 AM 1.4 °F -11.3 °F -2.2 °F 85% 29.99 in 10.0 mi South 6.9 mph - N/A   Clear
8:15 AM 1.4 °F -9.9 °F -2.2 °F 85% 30.00 in 10.0 mi South 5.8 mph - N/A   Clear
8:35 AM 1.4 °F - -2.2 °F 85% 30.00 in 10.0 mi Calm Calm - N/A   Clear
8:55 AM 3.2 °F -6.2 °F -2.2 °F 78% 30.01 in 10.0 mi South 4.6 mph - N/A   Clear
9:15 AM 6.8 °F -0.1 °F 1.4 °F 79% 30.00 in 10.0 mi SW 3.5 mph - N/A   Clear
9:35 AM 6.8 °F -3.5 °F 3.2 °F 85% 30.00 in 10.0 mi South 5.8 mph - N/A   Clear
9:55 AM 8.6 °F -1.3 °F 6.8 °F 92% 30.01 in 10.0 mi South 5.8 mph - N/A   Clear
10:35 AM 10.4 °F 0.8 °F 6.8 °F 85% 30.00 in 10.0 mi South 5.8 mph - N/A   Overcast
10:55 AM 10.4 °F 0.8 °F 8.6 °F 92% 30.00 in 10.0 mi SSE 5.8 mph - N/A   Overcast
11:15 AM 10.4 °F 0.8 °F 6.8 °F 85% 30.00 in 10.0 mi South 5.8 mph - N/A   Overcast
11:35 AM 12.2 °F 4.3 °F 8.6 °F 85% 29.99 in 10.0 mi South 4.6 mph - N/A   Overcast
11:55 AM 14.0 °F 2.9 °F 10.4 °F 86% 29.99 in 10.0 mi South 8.1 mph - N/A   Overcast
12:15 PM 15.8 °F 5.1 °F 12.2 °F 86% 29.97 in 10.0 mi South 8.1 mph - N/A   Overcast
12:35 PM 17.6 °F 8.2 °F 14.0 °F 86% 29.96 in 10.0 mi South 6.9 mph - N/A   Overcast
12:55 PM 19.4 °F 14.3 °F 15.8 °F 86% 29.96 in 10.0 mi South 3.5 mph - N/A   Overcast
1:15 PM 26.6 °F 17.5 °F 24.8 °F 93% 29.95 in 4.0 mi WNW 9.2 mph - N/A   Overcast
1:35 PM 26.6 °F 16.8 °F 23.0 °F 86% 29.95 in 1.5 mi West 10.4 mph - N/A   Overcast
1:55 PM 26.6 °F 17.5 °F 24.8 °F 93% 29.95 in 1.0 mi WNW 9.2 mph - N/A   Overcast
2:15 PM 26.6 °F 15.2 °F 24.8 °F 93% 29.96 in 1.5 mi WNW 13.8 mph - N/A   Overcast
2:55 PM 26.6 °F 15.2 °F 24.8 °F 93% 29.97 in 3.0 mi WNW 13.8 mph - N/A   Overcast
3:15 PM 26.6 °F 14.3 °F 23.0 °F 86% 29.97 in 5.0 mi WNW 16.1 mph - N/A   Mostly Cloudy
3:35 PM 26.6 °F 13.1 °F 24.8 °F 93% 29.98 in 6.0 mi WNW 19.6 mph 24.2 mph N/A   Scattered Clouds
3:55 PM 26.6 °F 13.8 °F 24.8 °F 93% 29.99 in 4.0 mi WNW 17.3 mph 24.2 mph N/A   Scattered Clouds
4:15 PM 28.4 °F 15.8 °F 24.8 °F 86% 29.98 in 3.0 mi WNW 18.4 mph 23.0 mph N/A   Scattered Clouds
4:55 PM 28.4 °F 14.7 °F 24.8 °F 86% 29.99 in 10.0 mi WNW 21.9 mph 26.5 mph N/A   Partly Cloudy
5:15 PM 28.4 °F 15.1 °F 24.8 °F 86% 29.98 in 10.0 mi WNW 20.7 mph 28.8 mph N/A   Scattered Clouds
5:35 PM 28.4 °F 15.1 °F 24.8 °F 86% 30.00 in 10.0 mi NW 20.7 mph 27.6 mph N/A   Clear
5:55 PM 28.4 °F 15.1 °F 24.8 °F 86% 30.00 in 10.0 mi WNW 20.7 mph 25.3 mph N/A   Clear
6:15 PM 28.4 °F 15.4 °F 24.8 °F 86% 30.00 in 10.0 mi WNW 19.6 mph 24.2 mph N/A   Scattered Clouds
6:35 PM 28.4 °F 15.1 °F 24.8 °F 86% 30.01 in 10.0 mi NW 20.7 mph 27.6 mph N/A   Mostly Cloudy
6:55 PM 28.4 °F 15.8 °F 24.8 °F 86% 30.01 in 10.0 mi WNW 18.4 mph 25.3 mph N/A   Mostly Cloudy
7:15 PM 28.4 °F 15.8 °F 24.8 °F 86% 30.01 in 10.0 mi WNW 18.4 mph 26.5 mph N/A   Overcast
7:35 PM 28.4 °F 16.2 °F 24.8 °F 86% 30.02 in 10.0 mi WNW 17.3 mph 20.7 mph N/A   Overcast
7:55 PM 28.4 °F 15.4 °F 24.8 °F 86% 30.02 in 10.0 mi WNW 19.6 mph 27.6 mph N/A   Overcast
8:15 PM 28.4 °F 16.2 °F 24.8 °F 86% 30.02 in 10.0 mi WNW 17.3 mph 24.2 mph N/A   Overcast
8:55 PM 28.4 °F 17.0 °F 23.0 °F 80% 30.02 in 10.0 mi West 15.0 mph 20.7 mph N/A   Mostly Cloudy
9:15 PM 26.6 °F 13.4 °F 23.0 °F 86% 30.02 in 10.0 mi West 18.4 mph 21.9 mph N/A   Scattered Clouds
9:35 PM 28.4 °F 15.8 °F 23.0 °F 80% 30.03 in 10.0 mi WNW 18.4 mph 25.3 mph N/A   Mostly Cloudy
9:55 PM 28.4 °F 15.4 °F 21.2 °F 74% 30.03 in 10.0 mi WNW 19.6 mph 25.3 mph N/A   Mostly Cloudy
10:15 PM 28.4 °F 15.4 °F 21.2 °F 74% 30.03 in 8.0 mi WNW 19.6 mph 27.6 mph N/A   Mostly Cloudy
10:35 PM 28.4 °F 14.7 °F 21.2 °F 74% 30.02 in 10.0 mi WNW 21.9 mph 27.6 mph N/A   Mostly Cloudy
10:55 PM 26.6 °F 12.4 °F 21.2 °F 80% 30.02 in 8.0 mi WNW 21.9 mph 28.8 mph N/A   Overcast
11:15 PM 26.6 °F 12.4 °F 21.2 °F 80% 30.02 in 3.0 mi WNW 21.9 mph 31.1 mph N/A   Mostly Cloudy
11:35 PM 26.6 °F 12.4 °F 21.2 °F 80% 30.03 in 8.0 mi WNW 21.9 mph 32.2 mph N/A   Overcast
11:55 PM 26.6 °F 12.7 °F 21.2 °F 80% 30.04 in 10.0 mi WNW 20.7 mph 27.6 mph N/A   Overcast